Total_Precipitation_Accumulation
0.43 0.40 0.48 0.70 0.82 0.73 0.78 0.88 1.14 1.02 0.90 0.90 0.90 0.95 0.97 0.96 0.99 1.00 1.05 1.05 1.02 1.05 1.13 1.25 1.33 1.34 1.39 1.44 1.47 1.57 1.65 1.67 1.67 1.55 1.43 1.39 1.43 1.26 1.26 1.34 1.35 1.39 1.45 1.52
0.27 0.24 0.34 0.59 0.71 0.72 0.70 0.70 0.73 0.66 0.65 0.58 0.57 0.64 0.71 0.77 0.73 0.75 0.83 0.84 0.82 0.83 0.88 0.95 0.90 0.93 0.99 1.14 1.31 1.47 1.52 1.49 1.46 1.39 1.39 1.36 1.32 1.26 1.23 1.24 1.29 1.32 1.34 1.48
0.38 0.28 0.39 0.62 0.63 0.67 0.53 0.39 0.39 0.47 0.49 0.42 0.43 0.53 0.61 0.70 0.72 0.70 0.71 0.73 0.75 0.76 0.74 0.79 0.78 0.82 0.87 0.97 1.13 1.26 1.32 1.27 1.19 1.16 1.18 1.20 1.19 1.24 1.25 1.24 1.25 1.28 1.23 1.32
0.54 0.50 0.74 0.81 0.63 0.55 0.48 0.34 0.27 0.29 0.32 0.33 0.37 0.47 0.55 0.61 0.70 0.66 0.63 0.63 0.68 0.70 0.69 0.73 0.80 0.86 0.93 0.99 1.01 1.10 1.19 1.18 1.13 1.08 1.05 1.06 1.08 1.15 1.24 1.20 1.18 1.22 1.20 1.14
0.72 0.69 0.69 0.64 0.47 0.44 0.53 0.54 0.31 0.26 0.25 0.26 0.29 0.41 0.48 0.54 0.58 0.53 0.49 0.46 0.48 0.51 0.53 0.59 0.67 0.73 0.76 0.78 0.79 0.84 0.92 0.97 0.95 0.89 0.93 1.02 1.02 1.14 1.22 1.14 1.13 1.11 1.13 1.09
0.79 0.81 0.83 0.60 0.31 0.27 0.43 0.72 0.40 0.26 0.20 0.19 0.26 0.42 0.43 0.42 0.42 0.37 0.35 0.33 0.31 0.35 0.38 0.44 0.52 0.66 0.70 0.66 0.60 0.62 0.69 0.72 0.78 0.78 0.82 0.90 1.01 1.11 1.14 1.11 1.11 1.06 1.03 1.00
0.85 0.99 1.00 0.68 0.37 0.33 0.66 0.79 0.42 0.27 0.20 0.21 0.27 0.29 0.31 0.32 0.35 0.29 0.30 0.30 0.29 0.31 0.36 0.41 0.48 0.57 0.61 0.63 0.59 0.59 0.63 0.63 0.66 0.70 0.76 0.88 0.99 0.95 0.92 0.95 1.00 1.01 1.03 0.96
1.05 1.29 1.35 0.84 0.63 0.66 0.65 0.45 0.33 0.24 0.22 0.24 0.26 0.24 0.25 0.26 0.27 0.23 0.24 0.27 0.28 0.29 0.34 0.43 0.46 0.47 0.49 0.51 0.51 0.54 0.56 0.60 0.57 0.56 0.61 0.69 0.78 0.86 0.85 0.84 0.88 0.87 0.86 0.85
1.15 1.17 0.99 0.75 0.66 0.58 0.50 0.42 0.31 0.27 0.24 0.24 0.25 0.24 0.24 0.22 0.21 0.19 0.20 0.24 0.28 0.34 0.40 0.45 0.48 0.46 0.45 0.45 0.48 0.54 0.58 0.60 0.57 0.55 0.57 0.63 0.70 0.80 0.89 0.91 0.89 0.85 0.77 0.74
0.64 0.65 0.60 0.48 0.41 0.41 0.40 0.38 0.30 0.26 0.25 0.26 0.26 0.25 0.24 0.21 0.20 0.19 0.19 0.22 0.27 0.35 0.39 0.45 0.46 0.46 0.45 0.45 0.46 0.50 0.56 0.61 0.60 0.61 0.63 0.64 0.67 0.73 0.86 0.93 0.85 0.76 0.74 0.74
0.47 0.44 0.43 0.37 0.33 0.34 0.35 0.31 0.26 0.25 0.26 0.28 0.28 0.25 0.23 0.23 0.25 0.23 0.22 0.22 0.25 0.32 0.37 0.43 0.48 0.46 0.46 0.45 0.44 0.47 0.53 0.57 0.57 0.60 0.65 0.65 0.61 0.61 0.69 0.75 0.81 0.83 0.81 0.81
0.46 0.35 0.38 0.39 0.34 0.31 0.32 0.28 0.26 0.28 0.32 0.31 0.26 0.25 0.23 0.24 0.29 0.30 0.28 0.28 0.29 0.31 0.36 0.38 0.43 0.49 0.50 0.54 0.52 0.50 0.51 0.55 0.56 0.59 0.65 0.64 0.60 0.60 0.62 0.64 0.73 0.75 0.75 0.76
0.31 0.24 0.25 0.27 0.26 0.24 0.24 0.22 0.22 0.25 0.31 0.32 0.28 0.26 0.23 0.22 0.28 0.32 0.33 0.36 0.39 0.40 0.40 0.37 0.39 0.44 0.48 0.55 0.58 0.61 0.59 0.60 0.60 0.61 0.61 0.60 0.63 0.65 0.64 0.60 0.59 0.60 0.61 0.59
0.18 0.18 0.21 0.23 0.22 0.20 0.20 0.19 0.22 0.25 0.26 0.29 0.28 0.26 0.24 0.25 0.28 0.30 0.32 0.38 0.41 0.40 0.41 0.43 0.42 0.45 0.53 0.58 0.62 0.67 0.72 0.78 0.73 0.67 0.64 0.61 0.62 0.68 0.69 0.70 0.65 0.56 0.54 0.57
0.15 0.17 0.21 0.20 0.19 0.19 0.18 0.19 0.21 0.21 0.24 0.25 0.24 0.25 0.29 0.31 0.31 0.33 0.33 0.33 0.35 0.34 0.34 0.40 0.41 0.43 0.50 0.52 0.55 0.61 0.68 0.74 0.77 0.76 0.73 0.70 0.72 0.78 0.77 0.68 0.61 0.59 0.56 0.57
0.20 0.18 0.17 0.16 0.16 0.16 0.14 0.17 0.19 0.19 0.21 0.23 0.24 0.29 0.35 0.38 0.36 0.37 0.34 0.29 0.28 0.28 0.30 0.37 0.41 0.41 0.45 0.47 0.47 0.52 0.53 0.63 0.72 0.76 0.78 0.78 0.82 0.84 0.81 0.73 0.62 0.59 0.56 0.55
0.21 0.24 0.23 0.20 0.18 0.18 0.18 0.18 0.18 0.19 0.19 0.19 0.23 0.31 0.36 0.37 0.36 0.37 0.37 0.34 0.32 0.30 0.30 0.35 0.41 0.42 0.44 0.47 0.47 0.48 0.47 0.50 0.58 0.63 0.67 0.70 0.75 0.80 0.81 0.78 0.70 0.66 0.62 0.60
0.18 0.23 0.26 0.25 0.21 0.21 0.22 0.22 0.21 0.19 0.19 0.20 0.23 0.32 0.38 0.40 0.42 0.43 0.44 0.41 0.36 0.33 0.32 0.36 0.38 0.40 0.43 0.48 0.53 0.54 0.52 0.50 0.53 0.57 0.60 0.63 0.69 0.71 0.75 0.77 0.75 0.72 0.70 0.72
0.18 0.20 0.21 0.21 0.18 0.19 0.21 0.22 0.23 0.25 0.25 0.24 0.24 0.31 0.40 0.48 0.52 0.50 0.48 0.47 0.45 0.46 0.46 0.47 0.51 0.44 0.44 0.51 0.55 0.52 0.51 0.49 0.50 0.57 0.59 0.65 0.67 0.65 0.66 0.67 0.67 0.66 0.66 0.68
0.24 0.27 0.29 0.27 0.21 0.19 0.20 0.22 0.23 0.26 0.30 0.31 0.29 0.32 0.40 0.48 0.51 0.49 0.46 0.47 0.52 0.59 0.58 0.60 0.59 0.53 0.51 0.55 0.60 0.55 0.55 0.55 0.58 0.62 0.61 0.61 0.64 0.65 0.64 0.64 0.65 0.65 0.67 0.70
0.33 0.40 0.38 0.35 0.27 0.21 0.20 0.21 0.23 0.27 0.30 0.30 0.31 0.35 0.44 0.54 0.54 0.52 0.50 0.50 0.51 0.56 0.59 0.64 0.63 0.63 0.62 0.67 0.71 0.65 0.64 0.63 0.66 0.70 0.71 0.69 0.68 0.67 0.67 0.70 0.71 0.74 0.76 0.76
0.36 0.38 0.35 0.33 0.30 0.26 0.24 0.23 0.23 0.24 0.27 0.29 0.31 0.37 0.46 0.57 0.62 0.58 0.55 0.58 0.60 0.66 0.64 0.63 0.62 0.70 0.78 0.76 0.64 0.65 0.69 0.71 0.73 0.73 0.74 0.76 0.78 0.77 0.75 0.78 0.80 0.80 0.81 0.83
0.33 0.34 0.37 0.39 0.38 0.34 0.31 0.29 0.30 0.29 0.30 0.33 0.36 0.40 0.45 0.51 0.62 0.69 0.60 0.54 0.56 0.64 0.61 0.63 0.68 0.76 0.81 0.73 0.68 0.67 0.66 0.65 0.66 0.70 0.75 0.80 0.82 0.85 0.88 0.89 0.87 0.85 0.88 0.92
0.27 0.30 0.36 0.40 0.40 0.39 0.40 0.39 0.40 0.39 0.39 0.39 0.41 0.43 0.46 0.50 0.56 0.65 0.61 0.59 0.64 0.67 0.59 0.66 0.76 0.81 0.79 0.65 0.67 0.72 0.73 0.70 0.70 0.75 0.80 0.83 0.83 0.86 0.91 0.95 0.97 0.96 0.98 1.03
0.25 0.25 0.29 0.35 0.39 0.39 0.38 0.38 0.39 0.41 0.43 0.42 0.44 0.47 0.48 0.52 0.59 0.65 0.62 0.57 0.65 0.70 0.67 0.76 0.84 0.84 0.77 0.75 0.75 0.77 0.81 0.83 0.86 0.89 0.86 0.88 0.89 0.93 0.97 1.00 1.03 1.06 1.05 1.06
0.24 0.23 0.26 0.31 0.35 0.35 0.34 0.35 0.37 0.41 0.43 0.43 0.44 0.48 0.51 0.53 0.58 0.66 0.70 0.65 0.65 0.72 0.74 0.78 0.82 0.84 0.82 0.89 0.91 0.91 0.90 0.91 0.89 0.84 0.84 0.86 0.88 0.90 0.92 0.95 0.97 1.01 1.04 1.04
0.26 0.25 0.26 0.30 0.32 0.31 0.32 0.36 0.40 0.42 0.45 0.47 0.47 0.48 0.49 0.52 0.58 0.65 0.73 0.74 0.69 0.71 0.78 0.84 0.86 0.87 0.88 0.91 0.95 0.98 0.98 0.95 0.93 0.90 0.89 0.93 0.95 0.97 0.96 0.96 0.98 1.01 1.05 1.09